Location: Lafig�re
(44.4503°N, 4.0357°E)
Time: 00:37:54
(UTC+00:00)

Transit 4A - Pass Details

Date: 22 January 2021
Orbit: 866 x 979 km, 66.8° (Epoch: 24 February)

Event Time Altitude Azimuth Distance (km) Brightness Sun altitude
Rises 05:44:49 0° 314° (NW) 3,608 - -15.4°
Reaches altitude 10° 05:48:17 10° 295° (WNW) 2,636 - -14.8°
Exits shadow 05:51:49 17° 259° (W) 2,150 9.3 -14.2°
Maximum altitude 05:52:00 17° 257° (WSW) 2,147 9.3 -14.2°
Drops below altitude 10° 05:55:40 10° 219° (SW) 2,576 10.0 -13.6°
Sets 05:59:01 0° 200° (SSW) 3,489 10.9 -13.0°
